GW2565 Weather Reports


time (UTC)temp
C
wind
direction
speed
KPH
gust
KPH
rain 1hr
cm
rain 24hr
cm
rain mn
cm
humidity
%
barometer
mb
20260504141107 15 217 9.7 16.1 0.00 0.00 0.00 45 1015.4
20260504140604 13 314 3.2 8.0 0.00 0.00 0.00 46 1015.0
20260504130528 13 341 4.8 14.5 0.00 0.00 0.00 45 1015.6
20260504110416 8 347 1.6 1.6 0.00 0.00 0.00 61 1016.1
20260504100332 5 1 0.0 1.6 0.00 0.00 0.00 66 1015.7
20260504081726 7 48 1.6 1.6 0.00 0.00 0.00 61 1015.7
20260504081222 7 24 0.0 8.0 0.00 0.00 0.00 60 1015.9
20260504080719 7 4 3.2 9.7 0.00 0.00 0.00 59 1015.8
20260504080215 7 135 1.6 4.8 0.00 0.00 0.00 58 1015.8
20260504070143 7 346 3.2 3.2 0.00 0.00 0.00 58 1015.8
20260504060103 8 14 0.0 11.3 0.00 0.00 0.00 57 1015.3
20260504050531 8 278 4.8 9.7 0.00 0.00 0.00 55 1015.3
20260504045525 8 339 1.6 4.8 0.00 0.00 0.00 56 1015.3
20260504045021 8 2 0.0 4.8 0.00 0.00 0.00 55 1015.4
20260504044518 8 4 0.0 3.2 0.00 0.00 0.00 56 1015.6
20260504044015 8 358 3.2 4.8 0.00 0.00 0.00 55 1015.3
20260504043512 8 5 0.0 8.0 0.00 0.00 0.00 55 1015.4
20260504043010 8 359 1.6 8.0 0.00 0.00 0.00 55 1015.2
20260504042506 8 356 1.6 3.2 0.00 0.00 0.00 56 1015.2
20260504042003 8 343 1.6 3.2 0.00 0.00 0.00 55 1015.1
20260504041459 8 359 0.0 4.8 0.00 0.00 0.00 55 1015.2
20260504040955 8 357 1.6 3.2 0.00 0.00 0.00 55 1015.3
20260504040453 8 47 3.2 8.0 0.00 0.00 0.00 54 1015.1
20260504035949 8 358 1.6 3.2 0.00 0.00 0.00 56 1015.1
20260504035446 8 7 3.2 3.2 0.00 0.00 0.00 54 1015.0
20260504034943 8 7 0.0 1.6 0.00 0.00 0.00 56 1015.1
20260504034440 7 5 0.0 3.2 0.00 0.00 0.00 55 1015.1
20260504033937 8 5 0.0 3.2 0.00 0.00 0.00 58 1015.1
20260504033435 7 207 1.6 1.6 0.00 0.00 0.00 58 1015.1
20260504032932 8 8 0.0 3.2 0.00 0.00 0.00 55 1015.1
20260504032429 8 8 0.0 3.2 0.00 0.00 0.00 55 1015.1
20260504031925 8 326 0.0 3.2 0.00 0.00 0.00 57 1015.1
20260504031422 8 322 1.6 1.6 0.00 0.00 0.00 55 1015.2
20260504030919 8 15 0.0 1.6 0.00 0.00 0.00 55 1015.2
20260504030416 8 25 0.0 3.2 0.00 0.00 0.00 56 1015.2
20260504025912 8 4 0.0 3.2 0.00 0.00 0.00 55 1015.0
20260504025409 8 3 0.0 3.2 0.00 0.00 0.00 57 1014.9
20260504024906 8 2 1.6 1.6 0.00 0.00 0.00 56 1015.1
20260504024403 8 3 1.6 1.6 0.00 0.00 0.00 54 1015.2
20260504023900 8 0 1.6 4.8 0.00 0.00 0.00 54 1015.1
20260504023356 7 356 1.6 3.2 0.00 0.00 0.00 57 1015.2
20260504022852 7 2 1.6 3.2 0.00 0.00 0.00 56 1015.2
20260504022349 7 3 0.0 1.6 0.00 0.00 0.00 57 1015.2
20260504021845 7 2 0.0 1.6 0.00 0.00 0.00 58 1015.1
20260504021343 7 31 0.0 3.2 0.00 0.00 0.00 58 1015.4
20260504020840 7 3 0.0 1.6 0.00 0.00 0.00 58 1015.0
20260504020336 7 2 0.0 1.6 0.00 0.00 0.00 57 1015.2
20260504015832 7 2 0.0 1.6 0.00 0.00 0.00 58 1015.2
20260504015329 7 2 0.0 1.6 0.00 0.00 0.00 58 1015.3
20260504014825 7 2 0.0 1.6 0.00 0.00 0.00 59 1015.1
20260504014321 7 3 0.0 0.0 0.00 0.00 0.00 57 1015.0
20260504013819 7 3 0.0 0.0 0.00 0.00 0.00 58 1015.2
20260504013317 7 3 0.0 0.0 0.00 0.00 0.00 57 1015.0
20260504012813 7 3 0.0 0.0 0.00 0.00 0.00 56 1015.0
20260504012311 7 3 0.0 0.0 0.00 0.00 0.00 56 1014.9
20260504011808 7 3 0.0 0.0 0.00 0.00 0.00 57 1014.8
20260504011304 7 3 0.0 0.0 0.00 0.00 0.00 58 1014.8
20260504010800 7 3 0.0 0.0 0.00 0.00 0.00 58 1015.0
20260504010256 7 3 0.0 0.0 0.00 0.00 0.00 56 1014.9
20260504005753 7 3 0.0 0.0 0.00 0.00 0.00 57 1015.0
20260504005250 8 3 0.0 0.0 0.00 0.00 0.00 54 1014.7
20260504004748 8 3 0.0 0.0 0.00 0.00 0.00 54 1014.9
20260504004245 8 3 0.0 0.0 0.00 0.00 0.00 54 1014.7
20260504003741 8 3 0.0 0.0 0.00 0.00 0.00 53 1014.9
20260504003238 8 3 0.0 1.6 0.00 0.00 0.00 53 1014.8
20260504002735 8 3 0.0 0.0 0.00 0.00 0.00 51 1014.5
20260504002232 9 3 0.0 1.6 0.00 0.00 0.00 53 1014.7
20260504001730 10 13 0.0 1.6 0.00 0.00 0.00 51 1014.5
20260504001226 10 9 0.0 3.2 0.00 0.00 0.00 49 1014.5
20260504000723 10 358 1.6 8.0 0.00 0.00 0.00 48 1014.4
20260504000220 10 333 3.2 4.8 0.00 0.00 0.00 47 1014.3
20260503235718 10 356 1.6 8.0 0.00 0.00 0.00 46 1014.5
20260503235215 10 331 4.8 4.8 0.00 0.00 0.00 47 1014.3
20260503234713 10 345 4.8 11.3 0.00 0.00 0.00 47 1014.3
20260503234211 10 19 3.2 9.7 0.00 0.00 0.00 49 1014.2
20260503233708 10 338 4.8 4.8 0.00 0.00 0.00 47 1014.3
20260503233203 10 2 0.0 3.2 0.00 0.00 0.00 48 1014.2
20260503232700 10 17 0.0 3.2 0.00 0.00 0.00 49 1014.2
20260503232157 10 17 0.0 3.2 0.00 0.00 0.00 48 1014.1
20260503231656 11 17 0.0 3.2 0.00 0.00 0.00 47 1014.3
20260503231151 11 35 0.0 1.6 0.00 0.00 0.00 50 1014.2
20260503230648 11 16 0.0 1.6 0.00 0.00 0.00 45 1014.2
20260503230145 11 347 3.2 3.2 0.00 0.00 0.00 46 1014.3
20260503225643 11 348 3.2 3.2 0.00 0.00 0.00 47 1014.5
20260503225143 11 1 3.2 3.2 0.00 0.00 0.00 46 1014.4
20260503224640 11 16 1.6 3.2 0.00 0.00 0.00 45 1014.3
20260503224138 11 348 3.2 3.2 0.00 0.00 0.00 47 1014.3
20260503223636 11 350 4.8 8.0 0.00 0.00 0.00 46 1014.3
20260503223132 11 323 4.8 9.7 0.00 0.00 0.00 45 1014.2
20260503222629 11 307 4.8 9.7 0.00 0.00 0.00 44 1014.2
20260503222127 11 316 6.4 9.7 0.00 0.00 0.00 45 1014.2
20260503221625 11 310 11.3 12.9 0.00 0.00 0.00 43 1014.2
20260503221122 12 340 3.2 9.7 0.00 0.00 0.00 43 1014.1
20260503220619 12 315 6.4 11.3 0.00 0.00 0.00 43 1014.0
20260503220115 12 315 3.2 11.3 0.00 0.00 0.00 41 1014.2
20260503215613 12 297 6.4 8.0 0.00 0.00 0.00 41 1014.0
20260503215109 11 50 3.2 9.7 0.00 0.00 0.00 43 1014.1
20260503214608 11 298 8.0 12.9 0.00 0.00 0.00 41 1014.3
20260503214103 11 332 4.8 9.7 0.00 0.00 0.00 40 1014.2
20260503213603 11 3 6.4 9.7 0.00 0.00 0.00 41 1014.0
20260503213058 11 321 4.8 16.1 0.00 0.00 0.00 43 1014.1
20260503212556 11 269 11.3 16.1 0.00 0.00 0.00 39 1014.1
20260503212053 12 315 9.7 12.9 0.00 0.00 0.00 38 1013.9
20260503211551 12 263 4.8 9.7 0.00 0.00 0.00 38 1014.0
20260503211045 12 290 8.0 12.9 0.00 0.00 0.00 38 1013.8
20260503210543 12 23 1.6 9.7 0.00 0.00 0.00 41 1013.9
20260503210038 12 294 4.8 9.7 0.00 0.00 0.00 39 1013.9
20260503205535 11 291 6.4 11.3 0.00 0.00 0.00 39 1013.9
20260503205032 12 320 6.4 11.3 0.00 0.00 0.00 37 1013.6
20260503204529 12 273 6.4 14.5 0.00 0.00 0.00 37 1013.4
20260503204026 13 279 6.4 12.9 0.00 0.00 0.00 35 1013.8
20260503203523 12 272 6.4 12.9 0.00 0.00 0.00 38 1013.9
20260503203020 12 285 6.4 11.3 0.00 0.00 0.00 35 1013.6
20260503202518 11 342 6.4 9.7 0.00 0.00 0.00 37 1014.0
20260503202016 12 335 8.0 9.7 0.00 0.00 0.00 38 1014.0
20260503201514 12 336 4.8 8.0 0.00 0.00 0.00 37 1013.8
20260503201011 12 327 4.8 11.3 0.00 0.00 0.00 37 1013.9
20260503200507 11 292 4.8 8.0 0.00 0.00 0.00 37 1014.0
20260503200004 11 304 6.4 9.7 0.00 0.00 0.00 37 1014.3
20260503195501 11 36 6.4 9.7 0.00 0.00 0.00 38 1014.1
20260503194957 12 274 4.8 14.5 0.00 0.00 0.00 37 1013.9
20260503194455 12 339 11.3 16.1 0.00 0.00 0.00 37 1014.1
20260503193949 12 351 3.2 8.0 0.00 0.00 0.00 39 1014.3
20260503193446 12 328 8.0 9.7 0.00 0.00 0.00 39 1014.4
20260503192941 11 262 12.9 16.1 0.00 0.00 0.00 38 1014.6
20260503192438 11 285 11.3 12.9 0.00 0.00 0.00 38 1014.4
20260503191933 11 270 11.3 12.9 0.00 0.00 0.00 40 1014.5
20260503191431 12 236 3.2 12.9 0.00 0.00 0.00 40 1014.7
20260503190927 10 316 6.4 12.9 0.00 0.00 0.00 39 1014.7
20260503190425 10 314 8.0 12.9 0.00 0.00 0.00 40 1014.6
20260503185922 11 287 6.4 12.9 0.00 0.00 0.00 39 1014.8
20260503185418 10 324 4.8 9.7 0.00 0.00 0.00 41 1014.8
20260503184917 10 289 4.8 11.3 0.00 0.00 0.00 41 1015.0
20260503184414 11 273 11.3 14.5 0.00 0.00 0.00 38 1015.1
20260503183910 10 22 6.4 14.5 0.00 0.00 0.00 39 1014.9
20260503183407 10 342 4.8 12.9 0.00 0.00 0.00 42 1015.1
20260503182904 10 18 3.2 11.3 0.00 0.00 0.00 41 1015.1
20260503182403 10 318 9.7 16.1 0.00 0.00 0.00 39 1015.0
20260503181900 10 290 8.0 14.5 0.00 0.00 0.00 40 1015.0
20260503181357 10 341 3.2 12.9 0.00 0.00 0.00 40 1015.2
20260503180853 10 90 3.2 9.7 0.00 0.00 0.00 39 1015.1
20260503180351 10 308 4.8 12.9 0.00 0.00 0.00 44 1015.2
20260503175847 10 291 6.4 14.5 0.00 0.00 0.00 39 1015.3
20260503175346 10 272 8.0 11.3 0.00 0.00 0.00 41 1015.3
20260503174841 9 262 9.7 11.3 0.00 0.00 0.00 40 1015.3
20260503174339 8 340 4.8 11.3 0.00 0.00 0.00 42 1015.3
20260503173834 9 319 8.0 12.9 0.00 0.00 0.00 40 1015.4
20260503173331 10 255 8.0 11.3 0.00 0.00 0.00 41 1015.4
20260503172827 10 306 9.7 11.3 0.00 0.00 0.00 41 1015.1
20260503172325 8 220 1.6 8.0 0.00 0.00 0.00 42 1015.3
20260503171821 9 273 4.8 20.9 0.00 0.00 0.00 42 1015.6
20260503171318 10 332 4.8 11.3 0.00 0.00 0.00 42 1015.3
20260503170815 8 282 8.0 11.3 0.00 0.00 0.00 42 1015.7
20260503170312 8 2 4.8 9.7 0.00 0.00 0.00 41 1015.9
20260503150704 6 323 4.8 8.0 0.00 0.00 0.00 49 1016.2
20260503150200 6 334 6.4 11.3 0.00 0.00 0.00 54 1016.1